This demonstration page uses our WeatherBlox Daily Observations layout. Learn more.

Left ArrowRight Arrow

44.31136, -96.79839

Hourly Observations for April 29, 2017

Temp ( °F °C ) Dew Point ( °F °C ) Humidity (%) Winds ( mph kmh ) Pressure ( in mb ) Visibility ( mi km ) Precip ( " mm )
12:56 am 00:56 Clear 37 2.8 24 -4.4 59 59 NNE 8 13 30.23 1024 10 16 0.00 0.00
1:56 am 01:56 Clear 33 0.6 23 -5 66 66 Calm 30.27 1025 10 16 0.00 0.00
2:56 am 02:56 Clear 34 1.1 24 -4.4 67 67 NNE 6 9 30.26 1025 10 16 0.00 0.00
3:56 am 03:56 Clear 33 0.6 23 -5 66 66 N 7 11 30.25 1025 10 16 0.00 0.00
4:56 am 04:56 Clear 33 0.6 22 -5.6 64 64 NNE 8 13 30.25 1024 10 16 0.00 0.00
5:56 am 05:56 Clear 32 0 22 -5.6 66 66 ENE 3 6 30.28 1025 10 16 0.00 0.00
6:56 am 06:56 Sunny 33 0.6 22 -5.6 64 64 NNE 7 11 30.29 1026 10 16 0.00 0.00
7:56 am 07:56 Sunny 38 3.3 23 -5 55 55 E 13 20 30.36 1028 10 16 0.00 0.00
8:56 am 08:56 Sunny 41 5 23 -5 49 49 E 14 22 30.37 1029 10 16 0.00 0.00
9:56 am 09:56 Sunny 44 6.7 21 -6.1 40 40 ENE 18 30 30.36 1028 10 16 0.00 0.00
10:56 am 10:56 Sunny 46 7.8 20 -6.7 35 35 ENE 16 26 30.34 1028 10 16 0.00 0.00
11:56 am 11:56 Sunny 47 8.3 18 -7.8 31 31 ENE 10 17 30.35 1028 10 16 0.00 0.00
12:56 pm 12:56 Sunny 49 9.4 21 -6.1 33 33 ENE 16 26 30.32 1027 10 16 0.00 0.00
1:56 pm 13:56 Sunny 50 10 20 -6.7 30 30 ENE 13 20 30.34 1028 10 16 0.00 0.00
2:56 pm 14:56 Sunny 52 11.1 20 -6.7 28 28 NE 17 28 30.35 1028 10 16 0.00 0.00
3:56 pm 15:56 Sunny 53 11.7 22 -5.6 30 30 ENE 18 30 30.29 1026 10 16 0.00 0.00
5:56 pm 17:56 Sunny 51 10.6 22 -5.6 32 32 NE 18 30 30.19 1023 10 16 0.00 0.00
6:56 pm 18:56 Sunny 51 10.6 23 -5 33 33 NE 18 30 30.22 1023 10 16 0.00 0.00
7:56 pm 19:56 Sunny 50 10 23 -5 35 35 NE 13 20 30.20 1023 10 16 0.00 0.00
8:56 pm 20:56 Clear 48 8.9 24 -4.4 39 39 NE 8 13 30.24 1024 10 16 0.00 0.00
9:56 pm 21:56 Clear 47 8.3 26 -3.3 44 44 NE 6 9 30.25 1025 10 16 0.00 0.00
10:56 pm 22:56 Clear 46 7.8 25 -3.9 44 44 NE 7 11 30.24 1024 10 16 0.00 0.00
11:56 pm 23:56 Clear 46 7.8 25 -3.9 44 44 NNE 8 13 30.23 1024 10 16 0.00 0.00

Powered by AerisWeather